Weather History for KEBG - March, 2012

Change the Weather History Date:

Monday, March 19, 2012

  Actual Average (KMFE) Record (KMFE)
Temperature  
Mean Temperature 82 °F 72 °F  
Max Temperature 90 °F 83 °F 95 °F (1971)
Min Temperature 74 °F 60 °F 38 °F (1960)
Degree Days  
Heating Degree Days 0 1  
Month to date heating degree days 30  
Since 1 July heating degree days 563  
Cooling Degree Days 17 7  
Month to date cooling degree days 116  
Year to date cooling degree days 275  
Growing Degree Days 32 (Base 50)    
Moisture  
Dew Point 68 °F    
Average Humidity 68    
Maximum Humidity 83    
Minimum Humidity 46    
Precipitation  
Precipitation 0.00 in 0.02 in 0.07 in (2014)
Month to date precipitation 0.62  
Year to date precipitation 2.78  
Sea Level Pressure  
Sea Level Pressure 29.75 in    
Wind  
Wind Speed 16 mph (SSE)    
Max Wind Speed 24 mph    
Max Gust Speed 32 mph    
Visibility 8 miles    
Events Rain , Thunderstorm    
T = Trace of Precipitation, MM = Missing Value Source: NWS Daily Summary

Daily Weather History Graph

Daily Weather History Graph

Search for Another Location

Airport or City:

Trip Planner

Search our weather history database for the weather conditions in past years. The results will help you decide how hot, cold, wet, or windy it might be!

Date:

Astronomy

Mar. 19, 2012 Rise Set
Actual Time 7:36 AM CDT 7:43 PM CDT
Civil Twilight 7:13 AM CDT 8:06 PM CDT
Nautical Twilight 6:47 AM CDT 8:33 PM CDT
Astronomical Twilight 6:20 AM CDT 9:00 PM CDT
Moon 5:36 AM CDT (3/19) 5:24 PM CDT (3/19)
Length of Visible Light 12h 52m
Length of Day
12h 06m
Waning Crescent, 8% of the Moon is Illuminated
Mar 19
Waning Crescent
Mar 22
New
Mar 30
First Quarter
Apr 6
Full
Apr 13
Last Quarter

Hourly Weather History & Observations

Time (CDT) Temp. Heat Index Dew Point Humidity Pressure Visibility Wind Dir Wind Speed Gust Speed Precip Events Conditions
12:15 AM 77.2 °F - 70.7 °F 80% 29.86 in 10.0 mi SSE 20.7 mph 31.1 mph N/A   Mostly Cloudy
12:35 AM 77.5 °F - 70.7 °F 79% 29.85 in 7.0 mi SSE 17.3 mph 25.3 mph N/A   Overcast
12:55 AM 77.5 °F - 70.7 °F 79% 29.86 in 7.0 mi SSE 12.7 mph 23.0 mph N/A   Overcast
1:15 AM 77.4 °F - 70.7 °F 80% 29.85 in 7.0 mi SSE 19.6 mph 24.2 mph N/A   Overcast
1:35 AM 77.4 °F - 70.7 °F 80% 29.86 in 7.0 mi SSE 16.1 mph 20.7 mph N/A   Overcast
1:55 AM 77.2 °F - 70.5 °F 80% 29.87 in 7.0 mi SSE 11.5 mph 19.6 mph N/A   Overcast
2:15 AM 77.2 °F - 70.2 °F 79% 29.86 in 10.0 mi SSE 13.8 mph 18.4 mph N/A   Overcast
2:35 AM 77.0 °F - 70.0 °F 79% 29.84 in 7.0 mi SSE 17.3 mph 24.2 mph N/A Thunderstorm Mostly Cloudy
2:55 AM 76.8 °F - 69.8 °F 79% 29.83 in 10.0 mi SSE 16.1 mph 24.2 mph N/A   Mostly Cloudy
3:15 AM 76.5 °F - 69.8 °F 80% 29.81 in 10.0 mi SE 16.1 mph 21.9 mph N/A   Mostly Cloudy
3:55 AM 76.3 °F - 69.3 °F 79% 29.82 in 10.0 mi SSE 11.5 mph 19.6 mph N/A   Overcast
4:15 AM 76.3 °F - 69.1 °F 78% 29.81 in 10.0 mi SSE 12.7 mph 19.6 mph N/A   Overcast
4:35 AM 75.7 °F - 68.9 °F 79% 29.80 in 10.0 mi SSE 11.5 mph - N/A   Mostly Cloudy
4:55 AM 75.9 °F - 68.5 °F 78% 29.80 in 10.0 mi SSE 11.5 mph 19.6 mph N/A   Overcast
5:15 AM 75.7 °F - 68.5 °F 78% 29.80 in 10.0 mi SSE 9.2 mph 16.1 mph N/A   Overcast
5:55 AM 75.0 °F - 68.2 °F 79% 29.80 in 10.0 mi SSE 9.2 mph - N/A   Mostly Cloudy
6:15 AM 74.8 °F - 68.5 °F 81% 29.80 in 10.0 mi SE 10.4 mph - N/A Rain Light Rain
6:35 AM 74.5 °F - 68.9 °F 83% 29.81 in 7.0 mi SSE 12.7 mph 18.4 mph N/A   Scattered Clouds
6:55 AM 74.7 °F - 68.5 °F 81% 29.81 in 10.0 mi SSE 11.5 mph 19.6 mph N/A   Scattered Clouds
7:15 AM 74.5 °F - 68.4 °F 81% 29.81 in 10.0 mi SSE 10.4 mph - N/A   Mostly Cloudy
7:35 AM 74.7 °F - 68.4 °F 81% 29.82 in 10.0 mi SSE 12.7 mph - N/A   Mostly Cloudy
7:55 AM 74.8 °F - 68.2 °F 80% 29.81 in 7.0 mi SE 10.4 mph - N/A   Overcast
8:15 AM 75.0 °F - 68.5 °F 80% 29.82 in 7.0 mi SSE 11.5 mph 16.1 mph N/A   Overcast
8:35 AM 75.4 °F - 68.7 °F 80% 29.82 in 7.0 mi SSE 12.7 mph 19.6 mph N/A   Overcast
8:55 AM 76.1 °F - 68.5 °F 77% 29.82 in 10.0 mi SSE 13.8 mph 21.9 mph N/A   Overcast
9:15 AM 76.5 °F - 68.4 °F 76% 29.82 in 10.0 mi SSE 13.8 mph 19.6 mph N/A   Overcast
9:35 AM 76.5 °F - 68.4 °F 76% 29.82 in 7.0 mi SSE 15.0 mph 20.7 mph N/A Rain Light Rain
9:55 AM 76.8 °F - 68.2 °F 75% 29.83 in 7.0 mi SSE 12.7 mph 24.2 mph N/A   Overcast
10:15 AM 77.2 °F - 68.4 °F 74% 29.83 in 10.0 mi SSE 15.0 mph 20.7 mph N/A   Overcast
10:35 AM 77.7 °F - 68.2 °F 72% 29.83 in 10.0 mi SSE 13.8 mph 23.0 mph N/A   Overcast
10:55 AM 78.3 °F - 68.2 °F 71% 29.84 in 10.0 mi South 13.8 mph 20.7 mph N/A   Overcast
11:15 AM 79.2 °F - 68.0 °F 69% 29.83 in 10.0 mi South 11.5 mph 18.4 mph N/A   Overcast
11:35 AM 80.2 °F 82.7 °F 67.6 °F 65% 29.83 in 10.0 mi South 16.1 mph 24.2 mph N/A   Overcast
11:55 AM 80.8 °F 83.3 °F 67.6 °F 64% 29.82 in 10.0 mi SSE 18.4 mph - N/A   Overcast
12:15 PM 82.0 °F 84.9 °F 67.8 °F 62% 29.81 in 10.0 mi SSE 18.4 mph 26.5 mph N/A   Overcast
12:35 PM 83.3 °F 86.2 °F 67.8 °F 59% 29.80 in 5.0 mi SSE 20.7 mph 24.2 mph N/A   Haze
12:55 PM 84.9 °F 88.2 °F 68.0 °F 57% 29.77 in 5.0 mi SSE 19.6 mph 28.8 mph N/A   Haze
1:15 PM 85.8 °F 89.1 °F 68.0 °F 55% 29.75 in 5.0 mi South 20.7 mph 32.2 mph N/A   Haze
1:55 PM 87.4 °F 90.8 °F 68.0 °F 52% 29.72 in 7.0 mi SSE 17.3 mph 27.6 mph N/A   Mostly Cloudy
2:15 PM 88.7 °F 92.2 °F 67.6 °F 50% 29.71 in 5.0 mi SSE 18.4 mph 29.9 mph N/A   Haze
2:35 PM 89.4 °F 92.7 °F 67.5 °F 48% 29.69 in 5.0 mi SSE 20.7 mph 27.6 mph N/A   Haze
2:55 PM 90.1 °F 93.1 °F 67.1 °F 46% 29.68 in 5.0 mi SSE 20.7 mph 28.8 mph N/A   Haze
3:15 PM 90.0 °F 93.6 °F 67.6 °F 48% 29.67 in 7.0 mi SSE 20.7 mph 31.1 mph N/A   Mostly Cloudy
3:35 PM 89.6 °F 93.0 °F 67.5 °F 48% 29.65 in 5.0 mi SSE 20.7 mph 28.8 mph N/A   Haze
3:55 PM 90.1 °F 93.1 °F 67.1 °F 46% 29.64 in 7.0 mi SSE 21.9 mph 26.5 mph N/A   Scattered Clouds
4:15 PM 90.0 °F 93.2 °F 67.1 °F 47% 29.64 in 7.0 mi South 23.0 mph 31.1 mph N/A   Clear
4:35 PM 89.2 °F 92.4 °F 67.1 °F 48% 29.63 in 7.0 mi SSE 23.0 mph 29.9 mph N/A   Clear
4:55 PM 88.7 °F 91.9 °F 67.1 °F 49% 29.62 in 5.0 mi SSE 18.4 mph 25.3 mph N/A   Haze
5:35 PM 87.6 °F 90.8 °F 67.3 °F 51% 29.61 in 7.0 mi SSE 19.6 mph 26.5 mph N/A   Clear
5:55 PM 87.8 °F 90.7 °F 66.9 °F 50% 29.60 in 7.0 mi SSE 19.6 mph 29.9 mph N/A   Clear
6:15 PM 87.4 °F 90.5 °F 67.1 °F 51% 29.60 in 7.0 mi SE 24.2 mph 27.6 mph N/A   Clear
6:35 PM 86.2 °F 88.8 °F 66.9 °F 52% 29.60 in 5.0 mi SSE 23.0 mph 28.8 mph N/A   Haze
6:55 PM 84.7 °F 87.4 °F 67.1 °F 55% 29.60 in 5.0 mi SSE 16.1 mph 28.8 mph N/A   Haze
7:15 PM 83.5 °F 86.2 °F 67.3 °F 58% 29.60 in 5.0 mi SE 18.4 mph 31.1 mph N/A   Haze
7:35 PM 82.2 °F 85.3 °F 68.4 °F 63% 29.61 in 5.0 mi SSE 17.3 mph 24.2 mph N/A   Haze
7:55 PM 81.0 °F 83.9 °F 68.5 °F 66% 29.61 in 5.0 mi SSE 18.4 mph 26.5 mph N/A   Haze
8:15 PM 80.1 °F 82.8 °F 68.7 °F 68% 29.61 in 7.0 mi SSE 16.1 mph 27.6 mph N/A   Clear
8:35 PM 79.3 °F - 69.1 °F 71% 29.62 in 7.0 mi SE 20.7 mph 28.8 mph N/A   Scattered Clouds
8:55 PM 79.0 °F - 69.6 °F 73% 29.62 in 7.0 mi SSE 16.1 mph 27.6 mph N/A   Overcast
9:15 PM 79.2 °F - 69.8 °F 73% 29.62 in 7.0 mi SSE 18.4 mph 31.1 mph N/A   Overcast
9:35 PM 79.5 °F - 69.8 °F 72% 29.62 in 7.0 mi SSE 19.6 mph 28.8 mph N/A   Overcast
9:55 PM 79.5 °F - 70.0 °F 72% 29.62 in 7.0 mi SSE 23.0 mph 31.1 mph N/A   Overcast
10:15 PM 79.3 °F - 69.8 °F 72% 29.62 in 5.0 mi SSE 25.3 mph 33.4 mph N/A   Haze
10:35 PM 79.2 °F - 69.8 °F 73% 29.63 in 7.0 mi SSE 18.4 mph 27.6 mph N/A   Overcast
10:55 PM 79.0 °F - 69.3 °F 72% 29.63 in 7.0 mi SSE 16.1 mph 26.5 mph N/A   Overcast
11:15 PM 78.8 °F - 69.1 °F 72% 29.63 in 7.0 mi SSE 21.9 mph 27.6 mph N/A   Overcast
11:35 PM 79.0 °F - 68.9 °F 71% 29.63 in 5.0 mi SSE 19.6 mph 28.8 mph N/A   Haze